Wind_Speed
3 2 2 1 1 0 0 1 1 2 2 2 2 2 2 3 3 3 3 3 4 4 5 6 6 7 7 7 7 7 8 8 8 8 8 8 8 8 8 9 9 9 9
2 2 1 1 1 1 1 1 1 1 2 3 3 4 4 4 4 5 5 5 5 5 5 6 7 7 7 8 8 8 9 9 9 9 8 8 8 9 9 10 9 9 10
1 0 1 1 1 1 1 2 2 2 3 3 4 5 5 5 5 5 6 6 6 6 7 7 7 8 8 8 9 9 9 9 9 9 8 8 9 9 9 10 11 11 11
1 0 0 0 0 2 2 3 3 4 5 5 4 5 5 6 6 6 6 6 7 7 8 8 8 8 9 9 9 10 10 10 10 10 10 10 10 10 10 10 11 11 11
1 2 2 1 2 3 3 3 4 5 6 5 5 5 5 6 6 6 6 6 7 8 9 9 9 9 9 9 10 11 11 11 11 11 11 11 11 12 11 11 11 11 11
2 2 2 3 3 4 4 4 4 5 5 6 6 5 5 6 6 6 7 7 8 8 9 9 9 10 10 10 11 11 11 11 10 11 12 12 12 12 11 11 11 11 12
3 3 3 3 4 4 5 5 5 4 5 6 6 5 5 5 6 6 7 7 8 8 8 9 9 10 10 11 11 11 11 10 10 10 11 12 12 12 12 12 12 12 12
3 4 5 5 5 5 5 5 5 5 5 5 5 5 6 6 6 6 7 8 8 8 8 8 9 9 10 10 10 10 10 10 11 11 11 11 12 12 13 13 13 13 13
4 5 6 6 6 7 7 7 6 6 7 7 6 6 6 7 7 7 7 8 8 9 9 8 8 8 10 10 10 11 10 10 11 12 12 12 13 13 13 13 14 14 14
6 6 7 7 7 7 8 8 8 8 8 8 7 7 8 8 8 8 8 8 9 9 10 9 9 9 10 11 11 11 11 11 11 12 12 12 13 13 13 14 14 14 14
7 7 8 8 8 9 9 9 9 9 9 9 9 9 9 9 10 10 10 10 11 11 11 10 10 11 12 12 12 12 11 11 12 12 13 13 13 14 14 13 13 13 14
9 9 10 10 10 10 10 10 10 10 10 11 11 10 11 11 11 12 11 11 11 12 12 12 12 13 14 13 13 13 12 13 13 13 13 13 14 14 14 14 14 14 14
11 11 12 12 12 12 11 11 11 11 11 12 12 13 13 13 13 13 13 12 12 13 13 13 13 14 14 14 14 14 13 14 14 14 14 15 15 15 15 15 15 15 15
12 13 13 14 13 13 12 12 13 13 13 13 13 14 14 14 13 13 14 14 14 14 14 14 14 14 14 15 14 15 15 15 15 16 16 17 17 17 16 16 16 16 16
14 14 15 15 15 15 14 14 14 14 14 14 14 14 15 15 15 15 15 15 16 16 16 15 15 15 15 15 16 17 17 17 18 18 18 18 19 18 18 18 17 17 17
16 16 17 16 16 16 16 16 16 15 16 16 16 16 16 16 16 16 16 16 17 16 17 17 17 17 17 17 17 18 19 20 20 20 20 20 20 20 20 19 19 19 19
18 18 19 18 17 17 18 18 17 17 17 17 18 18 18 18 18 18 18 19 19 19 19 19 19 19 20 20 20 21 21 21 21 21 22 22 21 21 21 21 21 21 21
21 21 21 20 19 20 20 20 20 19 19 19 20 20 20 21 21 21 21 21 22 21 21 21 21 21 22 22 22 23 23 23 23 23 23 23 22 22 22 22 23 22 22
23 23 23 22 23 23 22 22 22 22 23 23 23 23 23 23 23 23 23 23 24 24 24 24 23 23 23 23 24 24 23 23 23 23 23 23 23 23 23 24 24 24 23
26 25 25 25 25 24 24 24 24 25 26 26 26 26 25 25 25 25 25 26 26 26 26 26 26 25 25 25 25 25 24 24 24 24 24 24 24 24 25 25 26 26 25
28 27 27 26 26 26 27 27 27 27 27 27 27 27 27 27 27 28 28 28 28 28 28 28 27 27 27 27 27 26 26 26 26 26 26 26 26 26 26 27 27 27 27
29 28 28 28 28 28 29 29 30 29 29 29 29 29 29 29 30 29 29 28 29 29 30 30 29 29 28 29 29 28 28 28 28 28 29 29 29 28 29 29 29 28 28
30 28 28 29 30 31 31 31 31 31 31 31 31 31 31 31 32 32 31 31 32 32 32 32 31 32 31 31 31 31 31 31 31 31 31 31 31 30 30 30 30 30 30
32 31 30 30 31 32 32 32 32 33 32 32 32 32 32 33 33 34 34 34 33 33 33 33 33 34 34 33 33 33 33 33 33 33 33 32 32 32 31 31 30 30 30
34 33 32 32 32 33 33 33 34 33 34 34 34 34 34 35 35 35 35 34 34 34 34 35 35 35 34 35 35 35 35 35 35 35 34 33 33 33 32 31 31 31 31
36 34 33 33 33 32 33 34 35 35 35 35 36 35 36 36 36 36 36 35 35 35 36 36 36 36 36 36 36 36 36 36 36 35 34 34 33 33 32 32 32 32 31
Wind_Direction
172 174 171 165 134 88 164 206 212 235 240 254 278 288 288 269 278 269 277 281 288 297 300 296 297 298 304 308 302 300 299 296 295 296 294 295 294 292 291 290 285 285 280
163 189 191 181 156 91 62 2 324 275 274 274 276 281 279 280 277 274 276 281 286 291 295 298 303 303 307 307 305 302 302 299 297 297 298 301 300 296 290 285 286 287 282
181 194 214 205 190 298 316 321 332 321 297 288 283 275 272 277 278 278 278 279 283 288 291 293 299 305 303 300 298 302 302 302 300 302 301 304 302 297 297 291 285 283 285
118 33 28 23 316 310 313 312 323 328 318 307 294 277 274 275 276 282 283 282 282 287 291 291 294 302 303 298 296 297 300 299 297 297 298 298 298 296 296 295 293 291 289
50 23 14 346 329 330 328 317 318 320 319 318 308 295 283 277 281 283 283 283 287 292 292 290 292 297 301 299 300 297 295 296 293 293 294 299 300 299 297 297 299 298 295
2 357 340 338 339 334 329 322 317 316 318 319 311 305 299 290 290 288 293 292 289 292 295 292 291 294 299 300 299 298 296 292 293 294 293 295 300 302 300 297 297 297 295
358 1 338 335 345 344 335 324 317 315 316 319 321 318 315 305 301 298 298 297 294 291 293 296 295 293 296 298 299 299 297 292 292 295 295 294 296 300 300 298 296 298 297
341 339 339 332 333 337 337 329 317 315 314 316 318 320 320 316 310 305 302 302 300 296 296 296 297 297 297 299 299 299 297 294 292 294 296 298 298 297 299 298 297 297 298
333 331 331 328 326 330 329 329 326 317 315 313 311 314 314 317 314 306 308 308 307 303 298 297 295 298 300 301 300 301 298 296 295 294 294 296 299 300 300 300 299 299 298
321 324 328 327 324 322 325 326 327 323 321 318 309 307 308 308 306 306 307 310 311 310 305 296 292 296 297 298 299 300 299 298 298 297 296 297 298 301 302 300 299 296 295
307 313 318 319 319 316 316 316 316 317 318 316 311 307 305 305 304 303 302 303 305 306 303 299 298 296 297 298 297 294 295 297 298 297 298 298 297 299 300 299 298 297 294
302 305 308 310 310 308 307 308 309 309 306 309 306 306 306 302 302 301 299 299 301 304 303 300 299 297 295 294 293 291 292 295 297 299 300 299 297 296 297 298 298 298 295
298 299 300 302 303 303 301 300 302 303 302 301 300 300 301 300 302 300 298 297 297 298 300 300 296 296 293 293 292 289 289 290 293 295 296 297 297 295 294 295 296 297 296
296 296 295 297 299 299 298 296 297 297 297 296 295 296 297 297 299 302 300 299 298 297 297 299 297 294 291 291 292 289 285 286 289 290 292 294 295 295 294 294 295 296 295
291 293 293 293 293 293 294 296 298 296 294 295 295 295 294 293 293 296 298 300 300 299 300 299 301 297 294 293 291 291 289 287 287 289 290 292 293 292 292 293 294 294 295
289 290 292 292 290 290 292 293 295 296 293 292 292 293 291 291 290 292 295 298 299 300 302 300 298 296 295 294 293 292 290 290 290 287 287 289 290 291 290 290 291 291 292
285 287 289 291 290 289 290 290 292 295 293 291 292 292 292 290 288 288 291 294 295 296 298 297 295 294 294 293 294 295 294 291 290 287 285 285 286 286 288 288 289 289 288
282 283 285 286 286 286 290 291 291 292 292 291 288 289 288 287 287 286 287 289 291 292 293 294 293 293 292 291 292 293 295 291 287 286 285 284 284 284 286 287 287 287 284
279 280 282 282 284 286 287 289 289 288 289 290 288 287 286 284 285 285 285 286 287 288 290 291 292 292 293 293 292 292 293 290 288 288 286 283 283 283 285 285 285 284 282
278 277 279 280 281 283 287 289 289 288 288 289 287 286 286 283 283 284 284 285 286 288 288 289 291 292 291 292 292 292 291 289 289 289 288 286 285 285 287 285 284 282 281
276 275 277 279 281 283 285 285 285 286 286 288 288 287 285 284 283 283 283 283 285 287 287 288 289 289 290 290 291 291 288 286 287 288 287 286 286 286 286 287 286 283 281
275 275 276 278 280 282 282 283 283 283 284 285 286 285 284 283 282 283 282 282 283 285 287 287 287 287 287 288 288 288 287 286 286 287 287 287 286 287 286 286 286 284 283
274 277 277 278 280 281 281 280 280 282 282 282 282 282 282 283 283 282 282 281 280 282 284 284 285 285 285 285 285 285 285 285 285 286 287 287 286 285 285 286 286 284 282
276 277 278 280 281 281 280 280 280 281 281 281 281 281 282 282 284 283 282 282 281 280 281 283 284 283 283 283 284 284 284 285 285 286 286 286 285 284 284 284 284 284 282
275 276 277 279 282 282 279 279 280 281 280 280 281 281 282 284 284 284 283 282 281 280 281 283 284 284 283 282 282 282 283 284 286 285 285 285 284 283 283 282 283 282 281
274 276 277 279 280 280 280 280 281 281 282 282 283 283 283 284 285 283 283 281 280 280 281 282 282 283 282 282 282 282 282 283 284 284 283 282 282 282 281 281 282 282 282
Height
5902 5903 5904 5904 5905 5905 5905 5906 5906 5906 5907 5907 5907 5907 5907 5908 5908 5908 5908 5909 5909 5909 5909 5910 5910 5910 5909 5909 5909 5909 5908 5908 5907 5907 5907 5907 5906 5906 5906 5905 5905 5905 5905
5902 5903 5904 5904 5905 5905 5905 5905 5905 5906 5906 5906 5906 5907 5907 5907 5907 5907 5908 5908 5908 5908 5908 5909 5909 5908 5908 5908 5907 5907 5907 5906 5906 5906 5905 5905 5905 5904 5904 5903 5903 5903 5902
5903 5903 5904 5904 5905 5905 5905 5905 5905 5905 5905 5905 5905 5906 5906 5906 5906 5906 5907 5907 5907 5907 5907 5907 5907 5907 5907 5906 5906 5905 5905 5904 5904 5904 5904 5903 5903 5902 5902 5902 5901 5901 5900
5903 5903 5904 5905 5905 5905 5905 5905 5905 5905 5905 5904 5904 5904 5905 5905 5905 5905 5905 5906 5906 5906 5906 5906 5906 5905 5905 5905 5904 5904 5903 5903 5902 5902 5902 5902 5901 5901 5900 5899 5899 5898 5898
5904 5904 5904 5905 5905 5905 5905 5904 5904 5904 5904 5903 5903 5903 5903 5904 5904 5904 5904 5904 5904 5905 5904 5904 5904 5904 5903 5903 5902 5902 5901 5901 5900 5900 5900 5900 5899 5898 5898 5897 5897 5896 5895
5904 5905 5905 5905 5905 5904 5904 5903 5903 5903 5903 5902 5902 5902 5902 5903 5902 5903 5902 5902 5903 5903 5903 5902 5902 5902 5901 5901 5900 5900 5899 5898 5898 5898 5898 5897 5897 5896 5896 5895 5894 5894 5893
5905 5905 5905 5905 5904 5904 5904 5903 5903 5902 5902 5902 5901 5901 5901 5901 5901 5902 5901 5901 5901 5901 5901 5901 5900 5900 5899 5899 5898 5897 5897 5896 5896 5896 5895 5895 5894 5894 5893 5892 5891 5891 5890
5905 5905 5905 5904 5904 5904 5903 5903 5902 5902 5902 5901 5901 5901 5901 5901 5900 5900 5900 5899 5899 5899 5899 5899 5898 5898 5897 5897 5896 5895 5895 5894 5894 5893 5893 5892 5892 5891 5890 5889 5888 5888 5887
5904 5904 5904 5904 5904 5903 5903 5902 5901 5901 5900 5900 5900 5900 5900 5900 5900 5899 5899 5898 5898 5897 5897 5896 5896 5896 5896 5895 5894 5893 5893 5892 5892 5891 5891 5890 5889 5888 5887 5886 5885 5885 5884
5904 5904 5904 5903 5903 5903 5902 5901 5900 5900 5899 5899 5899 5899 5899 5898 5898 5898 5897 5897 5896 5895 5895 5894 5894 5894 5893 5892 5892 5891 5890 5890 5889 5888 5888 5887 5886 5885 5884 5883 5882 5881 5880
5903 5903 5903 5902 5902 5901 5901 5900 5899 5899 5898 5898 5897 5897 5897 5896 5896 5896 5895 5895 5894 5893 5892 5892 5891 5891 5890 5889 5889 5888 5888 5887 5887 5886 5885 5884 5883 5882 5881 5880 5879 5878 5877
5902 5902 5901 5901 5900 5899 5899 5898 5897 5897 5896 5896 5895 5895 5894 5894 5894 5893 5893 5892 5892 5891 5890 5889 5889 5888 5887 5886 5886 5885 5885 5884 5884 5883 5882 5881 5880 5879 5878 5877 5875 5874 5873
5900 5900 5899 5899 5898 5897 5896 5896 5895 5895 5894 5893 5893 5892 5892 5891 5891 5890 5890 5889 5889 5888 5887 5886 5886 5885 5884 5883 5882 5882 5881 5881 5880 5879 5879 5878 5877 5876 5874 5873 5872 5871 5869
5897 5897 5896 5896 5895 5894 5893 5893 5892 5892 5891 5890 5890 5889 5889 5888 5888 5887 5887 5886 5885 5885 5884 5883 5882 5881 5881 5879 5878 5878 5877 5877 5876 5876 5875 5874 5873 5872 5871 5870 5868 5867 5866
5894 5894 5893 5892 5891 5891 5890 5889 5889 5888 5888 5887 5886 5886 5885 5885 5884 5884 5883 5882 5881 5880 5880 5878 5878 5877 5876 5875 5875 5874 5873 5872 5871 5871 5870 5869 5869 5868 5866 5865 5864 5863 5861
5890 5890 5889 5888 5888 5887 5887 5886 5885 5885 5884 5883 5882 5882 5881 5880 5880 5880 5879 5878 5877 5876 5876 5874 5874 5872 5871 5870 5870 5869 5868 5867 5867 5866 5865 5865 5864 5863 5861 5860 5859 5858 5857
5886 5885 5885 5884 5884 5883 5882 5882 5881 5880 5880 5879 5878 5877 5877 5876 5875 5875 5874 5874 5873 5872 5871 5870 5869 5868 5867 5866 5865 5864 5863 5862 5861 5861 5860 5859 5858 5857 5856 5855 5854 5853 5851
5881 5880 5880 5879 5879 5878 5878 5877 5876 5875 5875 5874 5873 5872 5872 5871 5870 5870 5869 5869 5868 5867 5866 5865 5864 5863 5862 5861 5859 5858 5857 5856 5856 5855 5854 5853 5852 5851 5850 5849 5848 5847 5846
5875 5874 5874 5874 5873 5873 5872 5871 5871 5870 5869 5868 5867 5866 5865 5865 5864 5864 5863 5863 5862 5861 5860 5859 5858 5857 5856 5855 5854 5853 5851 5850 5850 5849 5848 5847 5846 5845 5844 5842 5841 5840 5839
5868 5868 5868 5867 5867 5866 5866 5865 5864 5864 5863 5862 5861 5860 5859 5859 5858 5858 5857 5856 5855 5854 5853 5853 5852 5851 5850 5848 5847 5846 5845 5844 5843 5842 5841 5840 5839 5838 5837 5835 5834 5833 5832
5861 5861 5861 5860 5860 5859 5859 5859 5858 5857 5856 5855 5854 5854 5853 5852 5851 5850 5850 5849 5848 5847 5846 5846 5845 5844 5843 5842 5841 5840 5838 5837 5836 5835 5834 5833 5832 5831 5830 5828 5827 5826 5825
5853 5853 5853 5853 5853 5852 5852 5851 5851 5850 5849 5848 5847 5846 5846 5845 5843 5842 5842 5841 5840 5839 5839 5838 5837 5836 5836 5834 5833 5832 5831 5830 5829 5828 5826 5825 5824 5823 5821 5820 5819 5818 5817
5845 5844 5844 5845 5845 5844 5844 5843 5842 5842 5841 5841 5839 5838 5838 5837 5835 5834 5834 5833 5832 5831 5830 5830 5829 5828 5827 5826 5825 5824 5822 5821 5820 5819 5818 5817 5815 5814 5813 5811 5810 5809 5808
5837 5836 5836 5836 5836 5836 5835 5834 5834 5833 5832 5832 5830 5829 5828 5828 5826 5825 5824 5823 5823 5822 5821 5820 5820 5819 5818 5817 5815 5814 5813 5812 5811 5810 5808 5807 5806 5805 5804 5803 5801 5800 5799
5827 5827 5828 5827 5827 5827 5826 5825 5825 5824 5823 5822 5821 5820 5819 5818 5817 5815 5814 5814 5813 5812 5811 5810 5810 5809 5808 5807 5805 5804 5803 5802 5802 5801 5799 5798 5797 5796 5795 5794 5792 5791 5789
5818 5818 5819 5819 5818 5818 5817 5816 5815 5815 5814 5813 5812 5810 5809 5808 5807 5805 5804 5803 5803 5802 5801 5800 5799 5798 5797 5796 5795 5794 5793 5791 5790 5790 5789 5788 5787 5785 5785 5785 5783 5781 5780